Weather History for Niagara Falls, NY

Change the Weather History Date:

Sunday, April 27, 2014

  Actual Average Record
Temperature  
Mean Temperature 46 °F -  
Max Temperature 54 °F 58 °F 85 °F (1990)
Min Temperature 37 °F 37 °F 26 °F (1993)
Degree Days  
Heating Degree Days 20    
Moisture  
Dew Point 31 °F    
Average Humidity 62    
Maximum Humidity 76    
Minimum Humidity 38    
Precipitation  
Precipitation 0.00 in - - ()
Sea Level Pressure  
Sea Level Pressure 30.15 in    
Wind  
Wind Speed 9 mph (North)    
Max Wind Speed 15 mph    
Max Gust Speed -    
Visibility 10 miles    
Events      
Averages and records for this station are not official NWS values.
T = Trace of Precipitation, MM = Missing Value Source: NWS Daily Summary

Daily Weather History Graph

Daily Weather History Graph

Search for Another Location

Airport:

Trip Planner

Search our weather history database for the weather conditions in past years. The results will help you decide how hot, cold, wet, or windy it might be!

Date:

Astronomy

Apr. 27, 2014 Rise Set
Actual Time 6:15 AM EDT 8:12 PM EDT
Civil Twilight 5:44 AM EDT 8:43 PM EDT
Nautical Twilight 5:06 AM EDT 9:20 PM EDT
Astronomical Twilight 4:26 AM EDT 10:01 PM EDT
Moon 5:17 AM EDT (4/27) 6:42 PM EDT (4/27)
Length of Visible Light 14h 58m
Length of Day
13h 57m
Waning Crescent, 3% of the Moon is Illuminated
Apr 27
Waning Crescent
Apr 29
New
May 6
First Quarter
May 14
Full
May 21
Last Quarter

Hourly Weather History & Observations

Time (EDT) Temp. Windchill Dew Point Humidity Pressure Visibility Wind Dir Wind Speed Gust Speed Precip Events Conditions
12:53 AM 39.0 °F 31.8 °F 30.0 °F 70% 30.07 in 10.0 mi NW 11.5 mph - N/A   Overcast
1:53 AM 39.0 °F 33.4 °F 30.0 °F 70% 30.08 in 10.0 mi NW 8.1 mph - N/A   Overcast
2:53 AM 37.9 °F 32.1 °F 30.9 °F 76% 30.07 in 10.0 mi NW 8.1 mph - N/A   Overcast
3:53 AM 37.9 °F 31.5 °F 30.9 °F 76% 30.10 in 10.0 mi NNW 9.2 mph - N/A   Overcast
4:15 AM 37.9 °F 32.7 °F 30.0 °F 73% 30.07 in 10.0 mi NNW 6.9 mph - N/A   Overcast
4:36 AM 37.9 °F 33.5 °F 30.0 °F 73% 30.07 in 10.0 mi NNW 5.8 mph - N/A   Overcast
4:53 AM 37.9 °F 32.1 °F 30.0 °F 73% 30.11 in 10.0 mi NW 8.1 mph - N/A   Overcast
5:53 AM 37.9 °F 32.1 °F 30.9 °F 76% 30.12 in 10.0 mi NW 8.1 mph - N/A   Overcast
6:22 AM 37.9 °F 30.9 °F 30.9 °F 76% 30.11 in 10.0 mi NNW 10.4 mph - N/A   Overcast
6:53 AM 37.9 °F 30.9 °F 30.9 °F 76% 30.15 in 10.0 mi NNW 10.4 mph - N/A   Overcast
7:05 AM 37.9 °F 31.5 °F 30.9 °F 76% 30.12 in 10.0 mi NNW 9.2 mph - N/A   Mostly Cloudy
7:53 AM 39.0 °F 32.8 °F 32.0 °F 76% 30.17 in 10.0 mi NW 9.2 mph - N/A   Mostly Cloudy
8:53 AM 39.9 °F 32.9 °F 30.9 °F 70% 30.18 in 10.0 mi North 11.5 mph - N/A   Mostly Cloudy
9:53 AM 43.0 °F 37.2 °F 33.1 °F 68% 30.18 in 10.0 mi North 10.4 mph - N/A   Scattered Clouds
10:53 AM 45.0 °F 41.2 °F 33.1 °F 63% 30.18 in 10.0 mi NNE 6.9 mph - N/A   Scattered Clouds
11:53 AM 46.4 °F 42.9 °F 33.8 °F 62% 30.16 in 10.0 mi NNW 6.9 mph - N/A   Scattered Clouds
12:53 PM 48.0 °F - 34.0 °F 58% 30.19 in 10.0 mi NW 12.7 mph - N/A   Scattered Clouds
1:53 PM 50.0 °F - 30.0 °F 46% 30.18 in 10.0 mi NE 6.9 mph - N/A   Scattered Clouds
2:53 PM 52.0 °F - 30.9 °F 45% 30.17 in 10.0 mi NE 15.0 mph - N/A   Scattered Clouds
3:53 PM 53.6 °F - 28.4 °F 38% 30.12 in 10.0 mi NNE 12.7 mph - N/A   Scattered Clouds
4:53 PM 54.0 °F - 28.9 °F 38% 30.15 in 10.0 mi NNE 12.7 mph - N/A   Partly Cloudy
5:53 PM 53.1 °F - 28.9 °F 40% 30.16 in 10.0 mi NE 10.4 mph - N/A   Partly Cloudy
6:53 PM 53.1 °F - 28.0 °F 38% 30.16 in 10.0 mi NE 10.4 mph - N/A   Partly Cloudy
7:53 PM 50.0 °F - 28.9 °F 44% 30.17 in 10.0 mi East 5.8 mph - N/A   Partly Cloudy
8:53 PM 46.0 °F 44.8 °F 28.9 °F 51% 30.18 in 10.0 mi East 3.5 mph - N/A   Partly Cloudy
9:53 PM 45.0 °F - 30.0 °F 56% 30.21 in 10.0 mi Calm Calm - N/A   Partly Cloudy
10:53 PM 42.1 °F 39.2 °F 30.9 °F 65% 30.22 in 10.0 mi NE 4.6 mph - N/A   Partly Cloudy
11:53 PM 39.9 °F 35.8 °F 30.0 °F 68% 30.22 in 10.0 mi NE 5.8 mph - N/A   Clear